Flag for U.S.A. Weather past 2 weeks in French Lick, Indiana, U.S.A.

Now
63 °F

Clear.


Feels Like: 63 °F
Forecast: 63 / 86 °F
Wind: 10 mph from Southeast

Location: Monroe County Airport

Current Time: Oct 2, 2014 at 7:30:22 AM

Latest Report: Oct 2, 2014 at 6:53 AM


Visibility: 10 mi

Pressure: 29.93 "Hg

Humidity: 81%

Dew point: 57 °F

Location of French LickLocation

Historic Weather in French Lick — Graph

°F

French Lick temperature yesterday

Maximum temperature yesterday: 78 °F (at 3:53 PM)
Minimum temperature yesterday: 51 °F (at 7:53 AM)
Average temperature yesterday: 63 °F

Past Weeks' High & Low Weather Summary

 TemperatureHumidityPressure
High83 °F (Sep 28, 3:53 PM)100% (Sep 18, 11:53 PM)30.36 "Hg (Sep 18, 11:53 PM)
Low41 °F (Sep 23, 4:53 AM)28% (Sep 29, 4:53 PM)29.83 "Hg (Sep 21, 5:53 AM)
Average61 °F76%30.10 "Hg
* Reported Sep 17 5:01 AM — Oct 2 5:53 AM, French Lick, Weather by CustomWeather, © 2014

Note: Actual official high and low records may vary slightly from our data, if they occured in-between our weather recording intervals... More about our weather records

Advertising

French Lick weather history for previous 24 hours

 ConditionsComfort  
Time TempWeatherWind HumidityBarometerVisibility
5:53 AM
Oct 2
63 °FClear.9 mph84%29.93 "Hg10 mi
4:53 AM63 °FClear.7 mph84%29.92 "Hg10 mi
3:53 AM62 °FClear.7 mph86%29.93 "Hg10 mi
2:53 AM62 °FClear.No wind86%29.94 "Hg10 mi
1:53 AM62 °FClear.No wind86%29.94 "Hg10 mi
12:53 AM59 °FClear.No wind93%29.94 "Hg9 mi
11:53 PM
Oct 1
60 °FClear.No wind96%29.96 "Hg10 mi
10:53 PM62 °FClear.No wind93%29.95 "Hg10 mi
9:53 PM67 °FClear.3 mph81%29.94 "Hg10 mi
8:53 PM68 °FClear.No wind78%29.94 "Hg10 mi
7:53 PM68 °FSunny.3 mph78%29.93 "Hg10 mi
6:53 PM75 °FSunny.6 mph64%29.92 "Hg10 mi
5:53 PM77 °FSunny.6 mph58%29.92 "Hg10 mi
4:53 PM78 °FSunny.7 mph56%29.92 "Hg10 mi
3:53 PM78 °FSunny.5 mph54%29.93 "Hg10 mi
2:53 PM76 °FSunny.7 mph58%29.95 "Hg10 mi
1:53 PM73 °FSunny.6 mph62%29.98 "Hg10 mi
12:53 PM70 °FSunny.5 mph64%29.99 "Hg10 mi
11:53 AM66 °FSunny.7 mph70%30.00 "Hg10 mi
10:53 AM62 °FSunny.6 mph75%30.01 "Hg10 mi
9:53 AM58 °FSunny.8 mph81%30.00 "Hg10 mi
8:53 AM54 °FPassing clouds.6 mph83%29.99 "Hg10 mi
7:53 AM51 °FClear.3 mph89%29.99 "Hg10 mi
Weather by CustomWeather, © 2014

See weather overviewHow to use our weather pages